Location: Oklahoma City
(35.4680°N, 97.5160°W)
Time: 06:00:48
(UTC-05:00)

ISS - All Passes

Search period start: 19 October 2017 00:00
Search period end: 29 October 2017 00:00
Orbit: 401 x 408 km, 51.6° (Epoch: 19 October)

Date Brightness Start Highest point End Pass type
(mag) Time Alt. Az. Time Alt. Az. Time Alt. Az.
19 Oct - 10:46:55 10° SW 10:50:05 60° SE 10:53:19 10° NE daylight
19 Oct - 12:24:47 10° WNW 12:26:50 16° NNW 12:28:53 10° N daylight
19 Oct - 17:17:32 10° NNW 17:20:06 21° NNE 17:22:40 10° E daylight
19 Oct - 18:53:37 10° WNW 18:56:39 35° SW 18:59:40 10° SSE daylight
20 Oct - 09:55:07 10° S 09:57:54 27° SE 10:00:42 10° ENE daylight
20 Oct - 11:31:35 10° W 11:34:20 25° NNW 11:37:06 10° NNE daylight
20 Oct - 16:25:51 10° N 16:27:35 13° NNE 16:29:17 10° ENE daylight
20 Oct - 18:01:08 10° NW 18:04:25 81° SW 18:07:41 10° SE daylight
21 Oct - 09:04:11 10° SSE 09:05:46 13° SE 09:07:22 10° E daylight
21 Oct - 10:38:47 10° WSW 10:41:55 46° NW 10:45:05 10° NE daylight
21 Oct - 17:08:55 10° NW 17:12:05 46° NE 17:15:15 10° ESE daylight
21 Oct - 18:46:34 10° W 18:48:14 13° SW 18:49:55 10° SSW daylight
22 Oct - 09:46:21 10° SW 09:49:35 81° SE 09:52:50 10° NE daylight
22 Oct - 11:24:43 10° WNW 11:26:25 13° NNW 11:28:07 10° N daylight
22 Oct - 16:16:52 10° NNW 16:19:39 25° NNE 16:22:25 10° E daylight
22 Oct - 17:53:15 10° WNW 17:56:05 27° SW 17:58:55 10° SSE daylight
23 Oct - 08:54:20 10° SSW 08:57:19 35° SE 09:00:19 10° ENE daylight
23 Oct - 10:31:19 10° W 10:33:52 21° NNW 10:36:25 10° NNE daylight
23 Oct - 15:25:03 10° N 15:27:07 15° NNE 15:29:10 10° ENE daylight
23 Oct - 17:00:37 10° NW 17:03:51 61° SW 17:07:04 10° SE daylight
24 Oct - 08:02:58 10° S 08:05:08 17° SE 08:07:19 10° E daylight
24 Oct - 09:38:20 10° WSW 09:41:22 36° NW 09:44:26 10° NNE daylight
24 Oct - 14:33:57 10° NNE 14:34:29 10° NNE 14:35:02 10° NNE daylight
24 Oct - 16:08:16 10° NW 16:11:31 60° NE 16:14:45 10° ESE daylight
24 Oct - 17:47:08 10° WSW 17:47:35 10° SW 17:48:01 10° SW daylight
25 Oct - 08:45:44 10° SW 08:48:58 77° NW 08:52:13 10° NE daylight
25 Oct - 10:24:41 10° NW 10:25:55 12° NNW 10:27:09 10° N daylight
25 Oct - 15:16:08 10° NNW 15:19:05 30° NE 15:22:01 10° E daylight
25 Oct - 16:52:51 10° WNW 16:55:24 21° SW 16:57:58 10° S daylight
26 Oct - 07:53:31 10° SSW 07:56:39 46° SE 07:59:46 10° ENE daylight
26 Oct - 09:30:58 10° WNW 09:33:17 18° NNW 09:35:35 10° NNE daylight
26 Oct - 14:24:11 10° NNW 14:26:32 18° NNE 14:28:52 10° ENE daylight
26 Oct - 16:00:01 10° WNW 16:03:10 45° SW 16:06:18 10° SSE daylight
27 Oct - 07:01:50 10° S 07:04:23 21° SE 07:06:56 10° ENE visible
27 Oct - 08:37:49 10° W 08:40:43 30° NW 08:43:38 10° NNE daylight
27 Oct - 13:32:37 10° N 13:33:53 12° NNE 13:35:09 10° NE daylight
27 Oct - 15:07:33 10° NW 15:10:49 78° NE 15:14:04 10° SE daylight
28 Oct - 06:11:43 10° SE 06:12:11 10° SE 06:12:40 10° ESE visible
28 Oct - 07:45:03 10° WSW 07:48:15 59° NW 07:51:28 10° NE daylight
28 Oct - 09:24:52 10° NNW 09:25:17 10° NNW 09:25:42 10° NNW daylight
28 Oct - 14:15:18 10° NNW 14:18:22 37° NE 14:21:26 10° ESE daylight
28 Oct - 15:52:26 10° W 15:54:37 17° SW 15:56:47 10° S daylight
